Flag for Cuba

Past Weather in Provincia de Ciego de Ávila, Cuba — Yesterday and Last 2 Weeks

Now
70 °F

Partly sunny.


Feels Like: 70 °F
Forecast: 77 / 60 °F
Wind: 13 mph from East

Location: Santa Bárbara

Current Time: Jan 21, 2019 at 11:30:28 am

Latest Report: Jan 21, 2019 at 10:52 am


Visibility: 6 mi

Pressure: 30.21 "Hg

Humidity: 53%

Dew Point: 52 °F

Location of Provincia de Ciego de ÁvilaLocation

Past Weather in Provincia de Ciego de Ávila — Graph

°F

Provincia de Ciego de Ávila Temperature Yesterday

Maximum temperature yesterday: 86 °F (at 12:51 pm)
Minimum temperature yesterday: 57 °F (at 4:50 am)
Average temperature yesterday: 68 °F

High & Low Weather Summary for the Past Weeks

 TemperatureHumidityPressure
High86 °F (Jan 20, 12:51 pm)94% (Jan 7, 12:51 am)30.21 "Hg (Jan 7, 12:51 am)
Low46 °F (Jan 11, 4:51 am)40% (Jan 19, 2:50 pm)29.95 "Hg (Jan 19, 2:50 pm)
Average68 °F78%30.09 "Hg
* Reported Jan 6 9:50 am — Jan 21 9:51 am, Provincia de Ciego de Ávila. Weather by CustomWeather, © 2019

Note: Actual official high and low records may vary slightly from our data, if they occured in-between our weather recording intervals... More about our weather records

Advertising

Provincia de Ciego de Ávila Weather History for the Previous 24 Hours

Scroll right to see more
 ConditionsComfort  
Time TempWeatherWind HumidityBarometerVisibility
9:51 am
Mon, Jan 21
66 °FPassing clouds.9 mph64%30.21 "Hg6 mi
8:52 am64 °FPartly sunny.5 mph73%30.21 "Hg6 mi
7:50 am54 °FPassing clouds.5 mph94%30.18 "Hg6 mi
6:52 am50 °FPassing clouds.1 mph94%30.15 "Hg5 mi
5:50 am52 °FPassing clouds.2 mph94%30.15 "Hg5 mi
4:50 am54 °FPassing clouds.3 mph94%30.12 "Hg5 mi
3:53 am54 °FPassing clouds.5 mph94%30.12 "Hg5 mi
2:51 am54 °FPassing clouds.3 mph94%30.12 "Hg5 mi
1:50 am57 °FPassing clouds.2 mph88%30.12 "Hg5 mi
12:56 am59 °FPassing clouds.3 mph88%30.12 "Hg5 mi
11:50 pm
Sun, Jan 20
57 °FPassing clouds.3 mph94%30.12 "Hg5 mi
10:50 pm61 °FPassing clouds.3 mph88%30.12 "Hg5 mi
9:50 pm63 °FPassing clouds.5 mph88%30.09 "Hg5 mi
8:51 pm66 °FPassing clouds.6 mph83%30.09 "Hg5 mi
7:52 pm68 °FPassing clouds.6 mph78%30.09 "Hg5 mi
6:50 pm70 °FPassing clouds.6 mph78%30.07 "Hg5 mi
5:50 pm70 °FPartly sunny.13 mph78%30.07 "Hg5 mi
4:51 pm72 °FPartly sunny.8 mph83%30.04 "Hg5 mi
3:50 pm73 °FPartly sunny.10 mph83%30.01 "Hg5 mi
2:50 pm73 °FPartly sunny.10 mph83%30.01 "Hg5 mi
2:22 pm72 °FScattered showers. Partly sunny.15 mph88%29.98 "Hg4 mi
12:51 pm86 °FScattered clouds.18 mph49%29.98 "Hg6 mi
11:50 am84 °FScattered clouds.17 mph55%30.01 "Hg6 mi
Weather by CustomWeather, © 2019

See weather overview